Regional Weather Roundup
Issued by NWS

Home | Current Version | Previous Version | Text Only | Print | Product List | Glossary On
Versions: 1 2 3 4 5 6 7 8 9 10 11 12 13 14 15 16 17 18 19 20 21 22 23 24 25 26 27 28 29 30 31 32 33 34 35 36 37 38 39 40 41 42 43 44 45 46 47 48 49 50
000
ASUS43 KMPX 281110
RWRMN
WEATHER ROUNDUP FOR MINNESOTA
NATIONAL WEATHER SERVICE TWIN CITIES/CHANHASSEN MN
500 AM CST SAT FEB 28 2015


NOTE: "FAIR" INDICATES FEW OR NO CLOUDS BELOW 12,000 FEET WITH NO
SIGNIFICANT WEATHER AND/OR OBSTRUCTIONS TO VISIBILITY. N/A MEANS
CURRENT SKY AND/OR WEATHER CONDITIONS ARE NOT AVAILABLE.

MNZ060>063-068>070-281200-
   Twin Cities Metro

CITY           SKY/WX    TMP DP  RH WIND       PRES   REMARKS
TWIN CITIES    CLEAR     -1  -6  79 SE6       30.53R WCI -13
ST PAUL        FAIR      -1  -5  82 SE7       30.56R WCI -14
CRYSTAL        CLEAR      2  -4  76 S7        30.50S WCI -11
BLAINE         CLEAR      1  -2  85 SE6       30.50R WCI -10
LAKEVILLE      FAIR      -8  -9  92 S5        30.52R WCI -19
EDEN PRAIRIE   CLEAR     -2  -7  79 S7        30.50S WCI -15
SOUTH ST PAUL  FAIR      -1  -5  81 CALM      30.54R
LAKE ELMO      FAIR       0  -6  78 S3        30.53R
$$
MNZ001>005-007-008-013>017-022>024-027-028-281200-
   Northwest Minnesota

CITY           SKY/WX    TMP DP  RH WIND       PRES   REMARKS
BEMIDJI        PTCLDY    -1  -6  82 S3        30.29S FOG
HALLOCK        MOCLDY     0  -8  71 SE13      30.22F WCI -18
ROSEAU         MOCLDY     0  -6  78 S10       30.24F WCI -17
WARROAD        PTCLDY     3  -4  72 S3        30.24F
THIEF RVR FALL PTCLDY     1   0  92 SE8       30.25S WCI -12
CROOKSTON      PTCLDY     7   0  72 S15       30.27F WCI -11
FOSSTON        PTCLDY     1  -4  78 S9        30.26F WCI -14
DETROIT LAKES  PTCLDY     1  -4  78 S8        30.29F WCI -12
MOORHEAD       PTCLDY     7   1  78 SE14      30.29F WCI -10
PARK RAPIDS    PTCLDY    -1  -5  82 S9        30.30F WCI -16
MAHNOMEN       FAIR       7  -1  70 S13       30.27S WCI -10
$$
MNZ006-009>011-018-025>026-281200-
   North Central Minnesota

CITY           SKY/WX    TMP DP  RH WIND       PRES   REMARKS
BAUDETTE       MOCLDY    -7 -12  79 E3        30.26F
FLAG ISLAND    MOCLDY    -6  -9  84 S9        30.24S WCI -22
INTL FALLS     PTCLDY    -1  -8  72 S6        30.31S WCI -13
WASKISH        MOCLDY     0  -6  78 CALM      30.29S
BIG FORK       PTCLDY    -6 -11  77 S5        30.32F WCI -17
LONGVILLE      PTCLDY    -6  -8  92 SE7       30.34F WCI -20
GRAND RAPIDS   CLEAR     -2  -6  84 S10       30.33S WCI -19
CRANE LAKE     PTCLDY   -18 -24  76 CALM      30.37S
ORR            PTCLDY    -4  -9  77 CALM      30.31S
COOK           PTCLDY     1  -6  71 S3        30.34S
WALKER         FAIR       1  -4  78 S8        30.31S WCI -12
$$
MNZ012-019>021-037-281200-
   Northeast Minnesota

CITY           SKY/WX    TMP DP  RH WIND       PRES   REMARKS
DULUTH         PTCLDY     0  -6  76 SW7       30.39S WCI -13
ELY            PTCLDY    -4  -9  77 SW3       30.35S
HIBBING        PTCLDY   -19 -26  70 CALM      30.36F
EVELETH        PTCLDY   -17 -24  70 CALM      30.37F
DULUTH HARBOR  PTCLDY     0  -6  78 CALM      30.49S
TWO HARBORS    PTCLDY     0  -8  71 CALM      30.40S
SILVER BAY     CLEAR    -11 -17  77 CALM      30.39S
GRAND MARAIS     N/A     -1 -10  65 NW5       30.44S WCI -11
G MARAIS ARPRT CLEAR      1 -11  55 W7        30.32R WCI -11
$$
MNZ029>031-032-039>041-046>048-054>057-064-281200-
   West Central Minnesota

CITY           SKY/WX    TMP DP  RH WIND       PRES   REMARKS
FERGUS FALLS   PTCLDY     1  -4  78 SE13      30.36F WCI -16
WHEATON        PTCLDY     0  -6  78 SE16      30.33F WCI -21
MORRIS         PTCLDY     0  -6  78 SE10      30.35S WCI -17
ALEXANDRIA     PTCLDY     1  -4  79 S10       30.34F WCI -15
ELBOW LAKE     FAIR       1  -4  80 SE13      30.32F WCI -17
WADENA         PTCLDY    -4  -8  84 S6        30.33S WCI -16
APPLETON       CLEAR      1  -4  78 SE7       30.37F WCI -11
BENSON         CLEAR      0  -8  71 S7        30.38S WCI -13
ORTONVILLE     CLEAR      0  -6  78 SE10      30.34S WCI -17
MADISON        CLEAR      1  -4  78 CALM      30.37F
WILLMAR        FAIR      -2  -9  71 SE7       30.42R WCI -16
$$
MNZ033>034-036-042>043-049>051-058-059-281200-
   Central Minnesota

CITY           SKY/WX    TMP DP  RH WIND       PRES   REMARKS
ST CLOUD       CLEAR     -2  -6  83 SE5       30.44F WCI -12
SAUK CENTRE    FAIR      -1  -5  82 SE6       30.39S WCI -13
PAYNESVILLE    CLEAR     -3  -7  84 SE6       30.42S WCI -15
AITKIN         PTCLDY    -2  -9  71 CALM      30.38S
PINE RIVER     PTCLDY    -9 -13  84 SE5       30.38F WCI -21
BRAINERD       PTCLDY    -4  -7  87 S7        30.39S WCI -18
STAPLES        CLEAR     -2  -6  84 S7        30.36S WCI -16
LONG PRAIRIE   FAIR       0  -6  78 S6        30.38F WCI -12
LITTLE FALLS   CLEAR      0  -6  78 CALM      30.42R
LITCHFIELD     CLEAR     -2  -6  84 CALM      30.44S
BUFFALO        CLEAR      1  -4  78 S5        30.49S WCI  -8
MAPLE LAKE     CLEAR      0  -4  85 S6        30.47S WCI -12
$$
MNZ037-044-045-052-053-281200-
   East Central Minnesota

CITY           SKY/WX    TMP DP  RH WIND       PRES   REMARKS
PRINCETON      CLEAR      0  -6  78 CALM      30.46S
MORA           PTCLDY    -9 -17  70 CALM      30.47F
CAMBRIDGE      PTCLDY     0  -8  71 S6        30.47R WCI -12
RUSH CITY      MOCLDY    -4  -8  84 S6        30.49S WCI -17
MOOSE LAKE     FAIR      -6 -11  77 CALM      30.43S
HINCKLEY       FAIR      -9 -15  77 CALM      30.47R
CLOQUET        FAIR      -2  -8  78 SW6       30.41R WCI -14
MCGREGOR       CLEAR      0  -4  85 S5        30.41R WCI -10
$$
MNZ071>073-080-081-089-090-097-098-281200-
   Southwest Minnesota

CITY           SKY/WX    TMP DP  RH WIND       PRES   REMARKS
MONTEVIDEO     CLEAR      0  -6  78 S7        30.40F WCI -13
GRANITE FALLS  CLEAR     -3  -8  81 SE8       30.43S WCI -18
CANBY          CLEAR      8  -1  66 S10G17    30.36F WCI  -6
MARSHALL       CLEAR      3  -4  72 S16       30.39S WCI -16
REDWOOD FALLS  CLEAR     -7 -11  83 S8        30.45R WCI -23
OLIVIA         CLEAR     -4  -8  84 SE8       30.44R WCI -19
PIPESTONE      PTCLDY    -2  -8  78 S7        30.35S WCI -16
WINDOM         PTCLDY     0  -4  85 S7        30.42S WCI -13
WORTHINGTON    PTCLDY    21 -11  23 S13       30.42S WCI   9
JACKSON        PTCLDY     1  -6  71 S13       30.44R WCI -16
TRACY          CLEAR      4  -3  74 S13       30.39S WCI -13
SLAYTON        PTCLDY     2  -5  73 S13       30.39S WCI -16
$$
MNZ065>067-074>077-082>085-091>093-281200-
   South Central Minnesota

CITY           SKY/WX    TMP DP  RH WIND       PRES   REMARKS
MANKATO        PTCLDY    -6 -13  71 S9        30.49S WCI -22
NEW ULM        PTCLDY    -4  -9  77 S9        30.47S WCI -20
ST JAMES       FAIR      -2  -8  78 S7        30.48S WCI -16
FAIRMONT       FAIR      -8 -15  71 S7        30.46S WCI -22
GLENCOE        PTCLDY    -1  -4  86 S6        30.47F WCI -13
FARIBAULT      FAIR      -6  -9  84 S3        30.51S
OWATONNA       PTCLDY    -4  -9  77 SE10      30.50R WCI -21
WASECA         PTCLDY    -4  -8  84 S3        30.51S
ALBERT LEA     PTCLDY    -6  -9  84 S6        30.50R WCI -18
$$
MNZ078>079-086>088-094>096-281200-
   Southeast Minnesota

CITY           SKY/WX    TMP DP  RH WIND       PRES   REMARKS
ROCHESTER      PTCLDY   -14 -18  82 S9        30.51R WCI -33
RED WING       FAIR      -6  -9  84 CALM      30.56R
STANTON        PTCLDY    -1  -7  78 S6        30.52R WCI -13
DODGE CENTER   PTCLDY    -9 -13  84 S6        30.49S WCI -23
WINONA         PTCLDY    -8 -13  77 CALM      30.62R
AUSTIN         PTCLDY    -9 -15  77 S6        30.51S WCI -23
PRESTON        MOCLDY   -10 -15  80 S5        30.53S WCI -22
$$
ABBREVIATIONS USED IN REMARKS
   TC - TEMPERATURES IN CELSIUS
  WCI - WIND CHILL INDEX
   HX - HEAT INDEX
  VSB - VISIBILITY
$$


USA.gov is the U.S. government's official web portal to all federal, state and local government web resources and services.